Location: Unspecified
(0.0000°N, 0.0000°E)
Time: 12:35:52
(UTC+00:00)

Explorer 11/Cluster Stage 4 - Pass Details

Date: 14 December 2018
Orbit: 467 x 1260 km, 28.8° (Epoch: 15 July)

Event Time Altitude Azimuth Distance (km) Brightness Sun altitude
Rises 20:11:11 0° 225° (SW) 4,133 11.3 -31.0°
Reaches altitude 10° 20:14:30 10° 217° (SW) 3,094 10.3 -31.7°
Enters shadow 20:21:02 36° 161° (SSE) 1,625 8.1 -33.2°
